Flag Weather past 2 weeks in Nagoya, Japan

Now
63 °F

Passing clouds.


Feels Like: 63 °F
Forecast: 45 / 66 °F
Wind: 17 mph from Northwest

Location: Nagoya Airport

Current Time: Nov 22, 2014 at 7:49:27 PM

Latest Report: Nov 22, 2014 at 7:00 PM


Visibility: N/A

Pressure: 30.15 "Hg

Humidity: 64%

Dew point: 50 °F

Location of NagoyaLocation

Historic Weather in Nagoya — Graph

°F

Nagoya temperature yesterday

Maximum temperature yesterday: 61 °F (at 2:00 PM)
Minimum temperature yesterday: 45 °F (at 3:00 AM)
Average temperature yesterday: 53 °F

Past Weeks' High & Low Weather Summary

 TemperatureHumidityPressure
High68 °F (Nov 10, 12:30 PM)100% (Nov 9, 3:00 PM)30.33 "Hg (Nov 9, 3:00 PM)
Low45 °F (Nov 21, 3:00 AM)31% (Nov 19, 12:00 PM)29.71 "Hg (Nov 12, 12:30 PM)
Average57 °F62%30.11 "Hg
* Reported Nov 7 6:00 PM — Nov 22 6:30 PM, Nagoya, Weather by CustomWeather, © 2014

Note: Actual official high and low records may vary slightly from our data, if they occured in-between our weather recording intervals... More about our weather records

Advertising

Nagoya weather history for previous 24 hours

 ConditionsComfort  
Time TempWeatherWind HumidityBarometerVisibility
6:30 PM
Nov 22
64 °FPassing clouds.9 mph60%30.15 "HgN/A
6:00 PM63 °FPassing clouds.8 mph73%30.15 "HgN/A
5:30 PM59 °FPassing clouds.2 mph77%30.15 "HgN/A
5:00 PM61 °FPassing clouds.3 mph68%30.12 "HgN/A
4:30 PM63 °FPassing clouds.5 mph68%30.12 "HgN/A
4:00 PM63 °FPassing clouds.3 mph64%30.12 "HgN/A
3:30 PM63 °FPassing clouds.3 mph59%30.12 "HgN/A
3:00 PM64 °FPassing clouds.6 mph56%30.12 "HgN/A
2:30 PM64 °FPassing clouds.5 mph56%30.12 "HgN/A
2:00 PM64 °FPassing clouds.6 mph52%30.12 "HgN/A
1:30 PM63 °FPassing clouds.7 mph59%30.12 "HgN/A
1:00 PM61 °FPassing clouds.6 mph55%30.15 "HgN/A
12:30 PM61 °FPassing clouds.8 mph63%30.15 "HgN/A
12:00 PM61 °FPassing clouds.8 mph59%30.15 "HgN/A
11:30 AM61 °FPassing clouds.9 mph55%30.18 "HgN/A
11:00 AM59 °FPassing clouds.10 mph63%30.21 "HgN/A
10:30 AM59 °FPassing clouds.12 mph63%30.21 "HgN/A
10:00 AM59 °FPassing clouds.13 mph59%30.24 "HgN/A
9:30 AM57 °FPassing clouds.15 mph59%30.24 "HgN/A
9:00 AM55 °FScattered clouds.16 mph63%30.24 "HgN/A
8:30 AM54 °FPartly sunny.15 mph72%30.24 "HgN/A
8:00 AM54 °FPartly sunny.15 mph72%30.24 "HgN/A
7:30 AM52 °FPartly sunny.15 mph72%30.24 "HgN/A
6:30 AM52 °FPassing clouds.10 mph82%30.24 "HgN/A
6:00 AM50 °FPassing clouds.12 mph82%30.24 "HgN/A
5:30 AM52 °FPassing clouds.13 mph77%30.27 "HgN/A
5:00 AM52 °FPassing clouds.14 mph77%30.27 "HgN/A
4:30 AM50 °FPassing clouds.15 mph82%30.27 "HgN/A
4:00 AM50 °FPassing clouds.12 mph82%30.27 "HgN/A
3:30 AM50 °FPassing clouds.9 mph88%30.27 "HgN/A
3:00 AM48 °FPassing clouds.7 mph94%30.27 "HgN/A
2:30 AM50 °FPassing clouds.3 mph76%30.27 "HgN/A
2:00 AM50 °FPassing clouds.6 mph76%30.27 "HgN/A
1:30 AM50 °FPassing clouds.5 mph76%30.27 "HgN/A
1:00 AM50 °FPassing clouds.6 mph82%30.27 "HgN/A
12:30 AM50 °FPassing clouds.6 mph82%30.27 "HgN/A
12:00 AM52 °FPassing clouds.6 mph82%30.27 "HgN/A
11:30 PM
Nov 21
52 °FPassing clouds.6 mph82%30.30 "HgN/A
11:00 PM52 °FPassing clouds.7 mph77%30.27 "HgN/A
10:30 PM54 °FPassing clouds.7 mph77%30.27 "HgN/A
10:00 PM52 °FPassing clouds.8 mph77%30.27 "HgN/A
9:30 PM54 °FPassing clouds.3 mph72%30.27 "HgN/A
9:00 PM57 °FPassing clouds.7 mph67%30.27 "HgN/A
8:30 PM57 °FPassing clouds.6 mph72%30.27 "HgN/A
8:00 PM57 °FPassing clouds.5 mph67%30.27 "HgN/A
7:30 PM59 °FPassing clouds.3 mph63%30.27 "HgN/A
7:00 PM59 °FPassing clouds.3 mph63%30.27 "HgN/A
Weather by CustomWeather, © 2014

See weather overviewHow to use our weather pages